Regional Weather Roundup
Issued by NWS

Home | Current Version | Previous Version | Graphics & Text | Print | Product List | Glossary On
Versions: 1 2 3 4 5 6 7 8 9 10 11 12 13 14 15 16 17 18 19 20 21 22 23 24 25 26 27
000
ASUS45 KCYS 280110
RWRWY

WYOMING REGIONAL WEATHER ROUNDUP
NATIONAL WEATHER SERVICE CHEYENNE WY
700 PM MDT WED APR 27 2016

NOTE:  "FAIR" INDICATES FEW OR NO CLOUDS BELOW 12,000 FEET
WITH NO SIGNIFICANT WEATHER AND/OR OBSTRUCTIONS TO VISIBILITY.

WYZ001-280200-
YELLOWSTONE NATIONAL PARK

CITY           SKY/WX    TMP DP  RH WIND       PRES   REMARKS
LK YELLOWSTONE   N/A     37  23  56 CALM      29.86S
W YELLOWSTONE  NOT AVBL

$$
WYZ002>013-054>058-071-098>099-280200-
NORTHERN WYOMING

CITY           SKY/WX    TMP DP  RH WIND       PRES   REMARKS
JACKSON        MOSUNNY   46  23  39 NW12      29.79
CODY           CLOUDY    36  30  80 N10       29.91S WCI  28
GREYBULL       CLOUDY    44  27  51 NW18      29.89R
WORLAND        CLOUDY    42  31  64 N12       29.90R
SHERIDAN       CLOUDY    35  33  92 NW13      29.95R WCI  26
BUFFALO        LGT SNOW  33  30  88 N18G25    29.91S FOG     WCI  22
GILLETTE       LGT SNOW  33  32  96 N16       29.89S WCI  23
HULETT         LGT SNOW  32  32 100 NE7       29.90S WCI  26
NEWCASTLE      DRIZZLE   34  34 100 NW14      29.85S WCI  24

$$
WYZ014>020-022>026-101>103-280200-
CENTRAL WYOMING

CITY           SKY/WX    TMP DP  RH WIND       PRES   REMARKS
BIG PINEY      CLOUDY    47  21  35 NE7       29.79F
PINEDALE       CLOUDY    43  32  65 SE6G22    29.80S
DUBOIS         CLOUDY    34  32  93 SE12      29.83R WCI  25
LANDER         CLOUDY    38  31  76 S6        29.86F WCI  33
RIVERTON       CLOUDY    40  30  67 CALM      29.88S
CASPER         CLOUDY    35  28  75 W7        29.88S WCI  29
DOUGLAS        CLOUDY    36  30  79 NW14      29.88S WCI  27

$$
WYZ021-027>030-104>119-280200-
SOUTHERN WYOMING

CITY           SKY/WX    TMP DP  RH WIND       PRES   REMARKS
EVANSTON       CLOUDY    48  27  44 NE5       29.78F
KEMMERER         N/A     41  32  70 E12       29.80S
FORT BRIDGER   CLOUDY    46  37  71 E14       29.82S
ROCK SPRINGS   CLOUDY    43  30  60 NE13      29.83R
DIXON          FAIR      47  29  49 N8        29.84S
RAWLINS        CLOUDY    39  30  70 SE7       29.85F WCI  34
SARATOGA       FAIR      37  30  75 NW8G20    29.86S WCI  31
LARAMIE        MOCLDY    32  27  81 N17       29.82S WCI  21
CHEYENNE       FAIR      39  26  59 N17G30    29.80F WCI  30
TORRINGTON     FAIR      42  28  57 NW25G33   29.82S
PINE BLUFFS    FAIR      41  28  60 N20G31    29.80S

$$




USA.gov is the U.S. government's official web portal to all federal, state and local government web resources and services.